www.pogodaiklimat.ru

Погода и климат >> Архив погоды >> Индия >> Мадхья-Прадеш >> Гуна


ПОГОДА в Гуне

  • Прогноз погоды в Гуне
  • Монитор погоды в Гуне

АРХИВ ПОГОДЫ в Гуне

Время (UTC), дата Ветер
(напр.,м/с)
 
Видим.   Явления Облачность Т
(С)
Тd
(С)
f
(%)
Тe
(С)
Тes
(С)
Комфортность P
(гПа)
Po
(гПа)
Тmin
(С)
Tmax
(С)
R
(мм)
R24
(мм)
S
(см)
06 17.02 З 1 4000 м ясно +21.2 +5.6 36 +22 +38 комфорт 1015.4 960.6
09 17.02 З 1 4000 м ясно +23.6 +6.6 33 +24 +35 комфорт 1011.9 957.7
12 17.02 штиль 0 4000 м ясно +23.0 +7.8 38 +24 +24 комфорт 1010.9 956.6 +24.6
15 17.02 штиль 0 4000 м ясно +17.8 +8.0 53 +18 +18 1012.7 957.4
18 17.02 штиль 0 4000 м ясно +15.0 +8.7 66 +15 +15 1013.0 957.2
21 17.02 СЗ 1 4000 м ясно +13.6 +7.5 67 +15 +15 1012.2 956.1
00 18.02 штиль 0 4000 м 3/0
[Ci sp]
+13.6 +7.5 67 +13 +13 1010.9 954.9
03 18.02 штиль 0 2000 м 8/5 600 м
[Sc Ac trans]
+15.0 +6.8 58 +15 +16 1014.1 958.2 +12.4
06 18.02 З 1 4000 м 4/0
[Ac trans]
+25.6 +7.6 32 +26 +38 жарко 1011.2 957.4
09 18.02 СЗ 1 4000 м 6/0
[Ac trans]
+26.8 +5.6 26 +26 +34 жарко 1007.2 953.8
12 18.02 СЗ 1 4000 м 6/0
[Ac trans]
+25.0 +5.4 28 +25 +25 комфорт 1006.9 953.2 +28.2
15 18.02 В 1 4000 м 5/0
[Ac trans]
+19.8 +10.6 55 +22 +22 комфорт 1008.5 953.8
18 18.02 В 1 4000 м 5/0
[Ac trans]
+16.8 +9.1 60 +18 +18 1009.9 954.6
21 18.02 СЗ 1 4000 м 4/0
[Ac trans]
+15.4 +8.8 65 +17 +17 1009.2 953.7
00 19.02 штиль 0 4000 м ясно +14.4 +7.5 63 +14 +14 1009.1 953.4
03 19.02 штиль 0 4000 м 3/0
[Ci sp]
+15.6 +8.5 63 +15 +20 1012.9 957.2 +11.5
06 19.02 СЗ 1 4000 м 4/0
[Ci sp]
+26.6 +7.0 29 +26 +41 жарко 1012.7 959.0
09 19.02 СЗ 1 4000 м 5/0
[Ci sp]
+29.8 +8.5 26 +29 +40 жарко 1009.7 956.7
12 19.02 СЗ 1 4000 м 5/0
[Ci sp]
+28.0 +10.3 33 +28 +29 жарко 1009.6 956.3 +30.0
15 19.02 штиль 0 4000 м ясно +21.6 +12.9 58 +24 +24 комфорт 1013.4 958.8
18 19.02 СЗ 1 4000 м 5/0
[Ac trans]
+19.4 +12.3 63 +22 +22 комфорт 1014.7 959.6
21 19.02 З 1 4000 м 4/0
[Ac trans]
+18.2 +11.2 64 +20 +20 1013.9 958.6
00 20.02 СЗ 2 2000 м 6/3 600 м
[Sc Ac trans]
+18.6 +11.3 62 +20 +20 1014.1 958.9
03 20.02 ЮВ 1 4000 м 4/0
[Ac trans]
+20.6 +10.3 52 +23 +27 комфорт 1016.8 961.8 +16.8
06 20.02 СВ 1 4000 м 4/0
[Ci sp]
+27.4 +11.8 38 +29 +44 жарко 1015.5 961.8
09 20.02 СВ 2 4000 м 3/0
[Ci sp]
+30.2 +10.2 29 +30 +40 жарко 1012.1 959.0
12 20.02 СВ 1 4000 м 5/0
[Ci sp]
+30.0 +10.9 31 +30 +31 жарко 1011.8 958.7 +31.0
15 20.02 СЗ 1 4000 м 5/0
[Ac trans]
+24.0 +11.7 46 +26 +26 жарко 1014.4 960.1
18 20.02 В 2 4000 м 5/0
[Ci sp]
+21.2 +12.0 56 +23 +23 комфорт 1015.8 961.0
21 20.02 В 2 4000 м 5/0
[Ci sp]
+19.8 +11.1 57 +22 +22 комфорт 1014.9 959.9
00 21.02 В 2 4000 м 4/0
[Ci sp]
+18.8 +9.8 56 +20 +20 1015.4 960.1
03 21.02 ЮВ 2 4000 м ясно +21.0 +12.1 57 +24 +28 комфорт 1015.7 960.8 +17.5
06 21.02 ЮВ 2 4000 м 4/0
[Ci sp]
+31.0 +16.8 43 +35 +49 очень
душно
1013.4 960.4
09 21.02 СЗ 2 4000 м 5/0
[Ci sp]
+33.6 +14.9 33
12 21.02 З 1 4000 м 5/0
[Ci sp]
+31.4 +15.7 39 +34 +34 душно 1010.7 957.9 +34.2
15 21.02 штиль 0 4000 м 3/0
[Ci sp]
+25.0 +15.0 54 +28 +28 жарко 1013.7 959.7
18 21.02 СЗ 1 4000 м 5/0
[Ci sp]
+21.8 +15.5 67 +25 +25 комфорт 1015.1 960.4
21 21.02 СЗ 1 4000 м 4/0
[Ci sp]
+19.2 +13.6 70 +22 +22 комфорт 1013.7 958.6
00 22.02 З 1 4000 м 4/0
[Ci sp]
+18.0 +12.6 71 +20 +20 1014.4 959.1
03 22.02 штиль 0 4000 м ясно +19.0 +13.8 72 +20 +25 1015.6 960.4 +16.5
06 22.02 СЗ 1 4000 м 5/0
[Ci sp]
+27.4 +16.1 50 +31 +46 душно 1015.1 961.4
09 22.02 В 1 4000 м 5/0
[Ac trans]
+29.8 +15.6 42 +33 +41 душно 1012.3 959.2
12 22.02 ЮЗ 1 4000 м 3/0
[Ci sp]
+28.0 +16.8 51 +32 +32 душно 1012.0 958.6 +30.4
15 22.02 СЗ 1 4000 м 5/0
[Ci sp]
+22.8 +14.7 60 +26 +26 жарко 1014.0 959.5
18 22.02 СЗ 1 4000 м 5/0
[Ci sp]
+19.8 +11.9 60 +23 +23 комфорт 1015.1 960.0
21 22.02 СЗ 1 4000 м 5/0
[Ci sp]
+18.6 +10.9 61 +20 +20 1014.4 959.2
00 23.02 СВ 1 4000 м 4/0
[Ci sp]
+14.8 +10.6 76 +15 +15 1014.9 958.9
03 23.02 СВ 1 4000 м 3/0
[Ci sp]
+15.8 +8.8 63 +17 +22 1016.6 960.7 +12.4
06 23.02 С 1 4000 м 5/0
[Ci sp]
+21.6 +9.3 45 +23 +39 комфорт 1015.8 961.0
09 23.02 СЗ 1 4000 м 5/0
[Ci sp]
+25.0 +8.2 34 +25 +36 комфорт 1012.2 958.2
12 23.02 СЗ 1 4000 м 5/0
[Ci sp]
+25.4 +8.9 35 +26 +26 жарко 1011.1 957.3 +26.4
15 23.02 штиль 0 4000 м 3/0
[Ci sp]
+18.6 +10.0 57 +19 +19 1014.3 959.1
18 23.02 штиль 0 4000 м 3/0
[Ci sp]
+15.6 +8.1 61 +15 +15 1012.9 957.2
21 23.02 штиль 0 4000 м 3/0
[Ci sp]
+13.8 +7.3 65 +14 +14 1011.9 955.9
00 24.02 В 1 4000 м 8/0
[Ac trans Ci sp]
+13.0 +6.8 66 +13 +13 1011.3 955.2
03 24.02 ЮВ 1 2000 м 9/4 600 м
[Sc Ac trans]
+14.4 +7.5 63 +16 +17 1013.0 957.1 +12.0

 

Местоположение метеостанции Гуна (Мадхья-Прадеш, Индия): широта 24.65 долгота 77.32 высота над уровнем моря 478 м.

В архиве по умолчанию представлена погода в Гуне за последнюю неделю. Архивные данные за месяц целиком и за предыдущие месяцы, начиная с января 2011 года, Вы можете получить, выбрав интересующий диапазон дат из раскрывающегося списка и нажав кнопку "Ввод!".


*Определитесь, кто Вы:
робот инопланетянин человек

Внимание! Время в таблицах - всемирное. Для получения местного времени необходимо прибавить поправку, которая равна 5.5 ч.

Смотрите также архив погоды в соседних городах и на ближайших метеорологических станциях:

Погода в Шивпури (Мадхья-Прадеш, Индия) (83 км)
Погода в Раджгархе (Мадхья-Прадеш, Индия) (94 км)
Погода в Шеопуре (Мадхья-Прадеш, Индия) (130 км)
Погода в Бхопале (Мадхья-Прадеш, Индия) (152 км)
Погода в Тикамгархе (Мадхья-Прадеш, Индия) (153 км)
Погода в Райсене (Мадхья-Прадеш, Индия) (157 км)
Погода в Джханси (Уттар-Прадеш, Индия) (158 км)
Погода в Коте (Раджастхан, Индия) (158 км)
Погода в Шаджапуре (Мадхья-Прадеш, Индия) (170 км)
Погода в Сагаре (Мадхья-Прадеш, Индия) (170 км)

Пояснения к столбцам:

Ветер - указаны скорость ветра в м/с - средняя за 10 мин, порывы в срок и между сроками (в фигурных скобках) и направление, откуда дует ветер: С - северный, СВ - северо-восточный, В - восточный, ЮВ - юго-восточный, Ю - южный, ЮЗ - юго-западный, З - западный, СЗ - северо-западный.
Видимость - горизонтальная дальность видимости в метрах или километрах. При видимости от 1 до 10 км при отсутствии осадков обычно наблюдается дымка, при ухудшении видимости до 1 км и менее - туман. В сухую погоду видимость может ухудшаться дымом, пылью или мглою.
Явления - указаны атмосферные явления, наблюдавшиеся в срок или в последний час перед сроком; фигурными скобками обозначены явления, наблюдавшиеся между сроками (за 1-3 часа до срока); квадратными скобками обозначены град или гололедные отложения с указанием их диаметра в мм.
Облачность - указаны через наклонную черту общая и нижняя облачность в баллах и высота нижней границы облаков в метрах; квадратными скобками обозначены формы облаков: Ci - перистые, Cs - перисто-слоистые, Cc - перисто-кучевые, Ac - высококучевые, As - высокослоистые, Sc - слоисто-кучевые, Ns - слоисто-дождевые, Cu - кучевые, Cb - кучево-дождевые. Подробнее классификацию облаков см. в Атласе облаков (PDF).
T - Температура воздуха - температура, измеренная на высоте 2 м над землей.
Td - Температура точки росы - температура, при понижении до которой содержащийся в воздухе водяной пар достигнет насыщения.
f - Относительная влажность воздуха - влажноcть воздуха, измеренная на высоте 2 м над землей.
Te - Эффективная температура - температура, которую ощущает одетый по сезону человек в тени. Характеристика душности погоды. При расчете учитывается влияние влажности воздуха и скорости ветра на теплоощущения человека.
Tes - Эффективная температура на солнце - температура, которую ощущает человек, с поправкой на солнечный нагрев. Характеристика знойности погоды. Зависит от высоты солнца над горизонтом, облачности и скорости ветра. Ночью, в пасмурную погоду, а также при ветре 12 м/с и более поправка равна нулю.
P - Атмосферное давление - приведенное к уровню моря атмосферное давление.
Po - Атмосферное давление - измеренное на уровне метеостанции атмосферное давление.
Tmin - Минимальная температура - минимум температуры воздуха на высоте 2 м над землей.
Tmax - Максимальная температура - максимум температуры воздуха на высоте 2 м над землей.
R - Количество осадков - Количество выпавших осадков за период времени, мм. При наведении курсора мыши на число - период времени, за который выпало указанное количество осадков.
R24 - Количество осадков - Количество выпавших осадков за 24 часа, мм.
S - Снежный покров - Высота снежного покрова, см. При наведении курсора мыши на число - состояние снежного покрова и степень покрытия местности в баллах.